Dewpoint
3 7 8 8 7 6 9 9 8 8 13 14 15 15 14 15 15 15 14 13 13 13 13 12 12 13 12 13 14 14 13 13 14 14 15 14 13 14 15 15 13 13 13 13
4 6 4 5 6 6 7 7 7 13 14 13 12 12 12 14 14 15 14 13 12 12 12 12 12 12 12 12 13 13 13 13 12 14 15 14 13 14 15 14 14 12 13 13
4 3 4 5 5 7 7 7 7 7 14 12 12 12 14 14 15 15 14 13 12 12 12 12 11 12 11 12 12 12 13 13 13 13 14 15 14 13 14 16 15 14 14 15
-1 0 4 5 6 5 7 5 5 10 10 8 12 11 11 12 15 15 15 14 13 12 12 12 11 11 12 10 11 11 12 13 12 12 13 15 15 13 13 14 15 15 15 16
-2 -2 3 4 4 4 5 4 4 9 9 10 12 12 9 11 13 15 14 14 13 13 12 12 11 10 11 11 10 11 12 12 13 12 12 13 15 14 14 15 14 15 15 15
-5 -7 -1 2 3 4 3 2 7 9 7 7 7 8 7 11 11 10 13 13 13 13 13 12 11 11 10 10 11 10 11 12 12 12 13 13 14 15 15 15 15 15 13 16
-10 -10 -10 -2 2 -0 1 2 5 6 7 7 8 12 7 5 8 9 10 12 11 12 12 12 12 11 11 10 10 10 11 11 11 12 12 12 14 14 14 14 15 15 13 14
-6 -4 -12 -11 -2 -0 3 2 4 8 8 6 9 7 5 5 5 8 8 9 9 10 12 12 12 12 11 11 10 10 10 11 12 10 12 13 13 13 14 13 14 15 13 14
-12 -7 -17 -14 -10 -2 -0 3 0 1 5 6 5 5 3 1 3 4 6 8 9 10 11 11 12 12 11 11 10 10 10 10 11 11 9 13 13 13 14 14 13 15 15 14
-13 -12 -16 -17 -14 -11 -3 -2 2 1 4 7 4 3 2 3 2 7 9 7 9 10 12 12 12 13 12 11 11 10 9 9 9 10 10 11 13 13 13 14 14 13 14 15
-17 -15 -15 -15 -13 -13 -8 -4 -2 -1 0 4 6 4 2 3 4 5 6 9 9 11 12 12 12 12 13 13 12 10 9 9 9 10 9 10 12 12 12 14 13 14 14 14
-17 -17 -14 -15 -18 -17 -13 -7 -4 -1 2 -0 2 3 1 7 6 8 10 11 10 12 11 12 11 11 12 12 12 12 10 9 9 9 9 8 10 11 12 14 13 15 15 14
-6 -15 -14 -15 -18 -15 -14 -11 -7 -7 -4 0 1 0 4 10 11 13 14 14 13 13 12 12 12 9 10 12 12 12 11 9 9 9 9 9 9 10 9 13 13 14 15 14
-1 -8 -12 -16 -14 -16 -14 -13 -11 -10 -6 -5 -2 -1 -3 0 9 14 15 15 16 14 14 13 13 11 11 12 12 12 12 11 10 9 9 9 9 9 7 11 12 13 13 14
-1 -1 -4 -6 -14 -14 -15 -17 -12 -9 -10 -7 -6 -5 -6 -4 11 15 16 15 16 16 16 16 14 13 12 12 12 12 12 12 11 11 10 10 9 9 10 10 11 12 12 13
-0 -1 -1 -2 -6 -8 4 7 -3 -11 -1 -8 -3 -8 11 15 15 15 15 15 15 15 15 15 15 15 14 12 12 12 12 12 12 12 11 12 11 10 10 11 11 11 11 10
1 1 1 -2 -1 6 6 11 8 7 10 7 2 6 14 14 14 14 14 14 13 14 14 15 15 14 14 13 13 12 12 12 12 12 12 13 13 12 12 12 12 12 12 12
2 3 2 -1 2 1 11 11 10 11 12 12 14 13 14 13 12 12 12 12 13 13 14 14 15 15 15 14 14 13 13 13 13 13 13 13 13 13 13 14 14 14 13 12
1 1 1 2 -1 9 11 10 11 12 12 12 13 12 13 12 12 11 11 12 12 12 13 13 14 15 16 16 15 14 14 14 14 14 14 14 14 14 13 14 14 14 14 13
2 1 0 3 5 2 10 9 8 10 12 10 13 13 13 13 15 12 11 11 11 12 12 12 13 13 14 15 16 17 12 17 15 15 15 14 14 14 14 14 14 14 15 15
4 3 3 0 8 10 7 6 9 12 12 12 13 13 13 13 12 11 11 11 11 11 12 12 12 13 13 13 14 15 15 16 17 12 17 16 15 15 15 15 15 16 16 16
3 2 2 6 8 8 5 9 11 12 12 12 12 11 11 11 11 11 11 11 11 11 11 11 11 12 12 12 13 13 13 14 15 15 16 16 14 15 17 16 17 17 17 17
7 7 8 8 8 5 5 6 7 9 9 10 11 11 11 11 11 10 11 10 10 10 10 10 10 10 11 11 11 12 12 12 12 13 14 12 14 16 17 17 17 18 18 19
6 6 7 7 5 5 6 5 6 8 9 9 10 10 10 8 9 10 9 9 10 10 9 9 9 10 10 10 10 10 11 11 10 10 10 11 12 14 15 17 17 18 18 19
6 6 7 6 5 5 5 5 5 4 6 9 9 9 9 9 8 7 5 4 5 6 5 6 6 6 7 9 10 10 11 11 11 10 10 9 10 11 11 12 14 16 17 17
5 6 7 7 5 5 5 3 3 3 3 4 4 4 4 7 9 9 8 7 6 5 3 4 4 4 6 7 6 9 10 10 10 10 9 8 9 9 9 10 11 13 14 16
Wind_Speed
10 8 12 17 14 6 6 6 2 1 3 8 11 10 11 15 19 21 22 22 25 24 22 21 23 25 25 24 22 19 21 19 18 15 13 12 13 16 12 10 11 8 11 9
7 15 16 13 10 9 7 5 3 2 4 6 4 11 10 17 22 23 23 25 24 25 23 23 25 27 27 26 25 23 21 21 19 15 13 13 15 16 13 11 10 11 12 10
16 14 11 12 11 10 8 9 5 1 5 5 4 6 9 11 18 20 23 24 25 26 26 27 29 29 27 29 28 26 24 22 20 20 16 14 12 15 14 12 11 11 11 8
12 10 16 14 16 12 14 9 5 6 4 3 3 3 6 13 16 21 27 27 29 28 28 28 33 34 33 29 29 27 26 24 21 24 21 16 13 16 15 12 11 11 9 7
12 14 14 18 20 14 11 9 7 5 3 3 4 4 1 9 16 21 30 31 32 33 30 31 34 35 34 33 31 29 28 25 24 27 26 20 16 16 14 11 10 12 11 10
9 3 13 14 9 15 9 7 6 4 2 9 4 7 5 7 15 20 27 32 32 32 32 32 34 35 34 34 34 32 30 29 27 30 28 26 19 18 18 17 13 11 11 13
9 8 3 4 15 4 10 12 8 7 6 10 2 5 12 7 9 15 27 37 36 34 32 32 32 37 37 38 37 35 33 31 29 32 32 29 24 19 18 20 16 13 11 14
14 13 12 7 10 13 16 16 9 12 10 11 2 7 3 3 9 10 19 31 34 36 35 34 35 40 39 38 37 38 35 32 32 31 34 30 26 23 20 21 17 14 11 10
10 17 2 8 6 12 9 11 11 6 1 6 4 5 11 8 4 9 14 18 29 35 36 36 34 37 39 38 38 39 38 35 33 29 33 34 27 27 23 22 20 16 13 11
6 7 7 8 7 5 10 12 10 7 15 15 9 6 8 7 4 3 8 21 27 34 36 34 36 37 39 38 36 39 39 36 34 32 30 34 35 29 27 24 21 19 15 13
6 4 3 6 15 18 8 9 7 10 8 14 11 9 5 9 7 10 9 15 23 29 34 33 34 39 40 37 37 39 41 39 39 36 29 30 31 33 31 28 25 21 19 16
1 7 9 11 2 6 18 19 18 11 12 8 11 16 3 5 6 6 5 6 15 22 29 31 29 30 35 37 39 38 41 43 41 36 32 28 30 31 34 32 26 21 23 19
2 4 9 8 5 4 12 13 17 8 9 19 15 11 3 2 4 5 1 1 10 17 23 26 28 35 36 38 38 38 39 43 42 39 35 30 30 31 34 35 31 26 23 21
5 2 9 13 15 9 6 16 15 18 12 13 14 18 10 6 5 6 4 5 4 12 20 23 27 36 36 37 35 33 35 37 40 41 38 35 30 28 30 35 35 33 30 28
4 3 4 6 5 7 9 12 15 19 21 19 18 19 15 10 1 5 4 6 8 8 8 8 14 21 31 36 35 34 34 34 35 36 38 38 34 31 28 33 37 37 37 36
8 1 2 4 4 11 7 5 11 13 7 12 8 17 3 5 9 8 6 7 7 6 4 6 11 13 20 29 32 32 33 33 33 32 32 29 30 33 33 32 32 33 34 37
6 5 4 4 7 10 7 4 5 7 5 5 11 2 2 8 9 8 9 10 10 7 5 4 8 13 18 23 26 28 28 28 29 29 29 27 24 27 27 27 31 33 33 31
6 6 2 1 7 9 6 4 4 7 5 2 3 5 12 15 17 16 11 11 10 9 9 8 8 7 10 16 22 22 23 25 25 25 26 25 27 26 26 25 26 26 29 32
15 4 3 3 5 6 5 3 2 2 2 5 4 6 15 16 16 16 13 11 10 10 10 8 7 8 7 9 11 13 12 19 20 20 24 26 28 27 27 26 26 25 27 30
10 6 4 3 5 8 7 4 7 3 3 4 1 3 5 2 3 3 7 12 15 14 12 10 9 8 8 8 10 12 16 18 19 20 19 23 25 26 27 28 28 28 29 31
6 4 9 5 3 1 3 6 2 6 4 5 3 3 6 3 7 13 10 11 13 14 14 13 12 12 11 10 6 8 11 11 9 8 13 18 21 24 28 29 31 32 32 32
4 7 4 3 4 5 11 2 5 4 9 12 10 10 18 17 14 10 9 10 10 11 11 13 13 13 12 10 9 9 9 7 2 9 13 11 13 15 17 19 18 22 24 28
3 3 4 2 2 4 10 11 8 13 14 10 13 12 14 13 12 9 9 10 10 10 12 12 12 11 10 11 11 9 9 10 7 3 4 8 12 13 15 16 17 18 17 20
1 2 3 4 5 8 8 12 13 20 22 16 16 17 13 15 12 10 11 12 12 11 13 15 15 15 14 12 10 10 9 8 7 5 4 2 3 9 12 14 15 15 15 15
3 5 4 5 9 6 8 9 10 13 17 19 17 15 12 10 7 8 9 9 10 9 7 6 8 11 14 12 13 12 9 8 7 6 5 5 5 4 4 6 12 15 18 19
3 2 1 2 8 3 5 7 7 8 12 13 11 9 8 6 5 3 1 3 3 3 4 4 5 6 9 11 13 12 10 10 7 7 7 7 9 10 9 8 6 8 14 17
Wind_Direction
184 194 193 193 206 225 160 151 206 168 182 205 224 243 232 198 202 196 198 199 201 203 207 205 200 193 194 191 189 190 183 182 182 182 178 182 181 174 163 156 161 184 181 169
168 210 204 194 176 202 192 180 190 127 173 222 236 252 229 205 207 205 195 201 207 206 206 208 209 204 200 199 193 193 190 191 196 192 181 178 182 184 175 168 165 152 161 168
196 199 177 175 184 190 209 212 175 329 168 233 279 254 188 209 211 208 213 210 212 211 207 209 212 210 208 205 203 198 193 196 199 193 192 186 186 188 191 187 179 168 171 175
212 189 180 193 197 196 220 185 175 149 200 323 222 304 216 195 201 210 214 211 209 213 213 210 215 216 213 211 210 208 201 202 202 198 197 203 193 192 195 202 200 195 197 199
193 190 183 201 202 193 221 171 197 157 186 275 196 260 189 191 207 210 212 213 213 210 210 212 217 219 220 217 216 214 211 206 207 202 205 200 201 201 202 200 209 220 220 209
200 185 207 199 187 191 161 122 87 88 187 259 242 237 250 194 219 213 210 211 215 212 213 213 215 219 221 222 218 219 213 210 209 205 207 205 202 205 212 215 215 222 222 215
183 188 178 161 194 178 190 190 218 227 219 239 69 229 259 240 229 214 202 207 208 211 213 213 210 217 220 220 220 219 214 212 209 204 209 211 208 209 219 216 219 231 219 210
200 208 191 162 215 197 205 206 215 216 221 240 128 242 237 275 253 224 214 212 209 208 210 211 212 215 218 221 220 219 214 213 210 210 212 214 216 213 219 216 219 229 232 225
197 222 208 207 179 184 186 209 216 228 305 238 220 254 270 272 257 233 225 207 204 201 202 207 208 213 215 218 222 220 216 214 214 214 211 214 218 217 219 219 223 229 234 229
186 205 208 185 184 191 219 176 190 207 213 223 220 254 241 255 338 276 234 217 206 203 199 199 205 212 218 219 221 219 219 217 216 214 215 219 223 226 223 223 225 226 226 231
157 232 153 167 202 200 178 195 213 224 233 221 230 240 208 257 311 296 270 225 207 198 199 202 203 210 217 219 221 220 219 220 220 217 219 219 225 225 226 228 233 237 228 231
168 210 214 200 107 283 215 210 205 210 193 229 240 241 92 303 301 303 296 215 198 203 199 198 200 203 212 219 220 220 219 221 222 219 222 225 226 228 228 229 232 237 233 238
28 214 197 216 190 160 213 201 203 204 215 217 222 228 9 1 18 39 7 143 184 191 197 194 196 208 213 218 222 223 222 223 222 224 221 225 229 230 229 232 235 239 239 241
218 209 235 216 228 192 188 203 214 220 222 213 223 241 230 275 2 34 37 42 87 184 193 198 200 210 210 215 218 220 224 223 226 225 224 224 228 232 234 233 238 243 248 250
23 255 215 256 224 188 207 199 193 212 226 229 233 240 250 285 200 87 75 78 86 99 132 178 206 211 213 218 219 221 222 222 224 225 226 228 229 232 235 238 241 246 250 254
353 338 301 233 196 197 172 191 204 218 208 221 237 249 6 87 106 88 91 90 82 73 99 171 190 206 219 222 224 225 227 224 225 224 223 228 234 236 238 240 242 247 252 252
324 332 343 181 175 153 167 156 200 162 150 212 212 268 113 97 77 82 88 95 95 98 128 156 201 200 207 213 222 227 227 227 226 222 224 224 227 228 231 236 243 247 250 255
288 319 305 277 177 196 66 93 112 110 78 43 102 75 85 97 82 74 79 97 96 106 116 127 124 154 177 198 212 223 226 229 225 219 219 223 221 223 228 231 239 243 248 252
218 256 254 252 198 110 144 77 92 28 80 0 118 128 121 124 97 58 64 90 97 97 94 88 103 117 133 169 195 201 215 227 220 216 218 220 225 229 236 240 242 245 249 251
191 230 256 198 204 200 106 83 29 344 189 358 332 93 135 163 152 94 82 81 85 88 86 89 88 101 129 138 152 171 181 223 217 212 218 223 228 236 246 246 250 253 254 253
150 182 216 222 225 134 43 326 129 205 96 71 61 104 129 89 103 129 109 92 88 93 94 92 89 87 85 84 94 146 171 189 190 179 230 224 228 237 244 251 253 255 251 251
197 167 166 160 209 191 356 195 228 44 109 101 89 100 111 117 120 120 115 107 97 91 90 85 86 84 80 77 79 76 72 66 149 202 237 243 253 258 258 259 266 265 264 268
219 2 132 336 63 49 41 66 40 100 90 70 101 97 105 108 108 113 114 100 97 93 86 81 75 78 82 76 69 63 64 59 68 107 236 226 251 261 262 259 261 265 267 262
81 25 98 170 89 66 59 68 61 90 95 90 90 99 90 95 96 97 95 94 90 83 82 79 75 67 57 52 62 59 56 35 18 27 41 76 258 253 261 267 263 265 267 268
333 317 120 90 112 123 55 58 58 74 98 107 103 98 95 94 93 92 86 82 84 84 69 45 34 38 44 49 41 40 35 33 21 22 43 34 9 351 316 290 266 260 267 271
3 30 256 112 114 68 83 61 56 71 83 98 106 96 91 111 107 95 54 94 88 63 50 46 43 21 321 319 6 21 6 6 7 0 18 32 29 19 9 350 324 306 268 267
Height
1505 1506 1506 1502 1499 1503 1506 1508 1512 1513 1516 1519 1518 1517 1516 1521 1526 1527 1529 1533 1537 1540 1545 1549 1553 1556 1561 1565 1567 1571 1574 1576 1579 1581 1583 1586 1588 1590 1592 1594 1596 1597 1598 1600
1504 1502 1496 1498 1503 1505 1506 1509 1512 1515 1515 1518 1515 1512 1512 1516 1519 1523 1526 1528 1532 1537 1542 1545 1550 1554 1558 1562 1565 1569 1573 1575 1578 1581 1584 1586 1588 1591 1593 1595 1597 1598 1599 1601
1493 1493 1497 1499 1504 1506 1504 1507 1509 1511 1515 1514 1515 1509 1512 1512 1517 1522 1524 1526 1530 1532 1536 1541 1545 1550 1555 1558 1562 1566 1570 1574 1577 1580 1583 1586 1588 1591 1593 1595 1597 1598 1600 1601
1491 1491 1494 1497 1498 1498 1504 1501 1503 1509 1512 1515 1513 1514 1506 1504 1511 1515 1517 1521 1525 1528 1533 1537 1540 1546 1550 1554 1560 1564 1568 1571 1575 1579 1581 1584 1587 1589 1592 1595 1596 1598 1600 1601
1487 1490 1493 1494 1493 1495 1499 1497 1501 1506 1511 1513 1515 1517 1495 1501 1505 1505 1507 1512 1517 1522 1526 1531 1535 1540 1546 1551 1555 1560 1564 1568 1572 1575 1579 1582 1585 1589 1592 1593 1595 1597 1599 1600
1483 1488 1487 1487 1491 1492 1494 1499 1507 1509 1507 1517 1506 1508 1491 1496 1490 1492 1500 1506 1511 1516 1521 1525 1529 1535 1540 1546 1551 1556 1559 1563 1568 1572 1576 1580 1583 1587 1590 1592 1594 1596 1598 1599
1485 1485 1485 1486 1490 1492 1492 1499 1518 1524 1522 1519 1510 1513 1488 1479 1480 1482 1487 1493 1501 1508 1515 1520 1523 1528 1534 1539 1545 1551 1556 1559 1563 1568 1573 1577 1580 1584 1587 1590 1593 1595 1596 1597
1485 1494 1482 1482 1482 1489 1492 1492 1507 1530 1523 1511 1511 1505 1484 1474 1475 1478 1482 1487 1494 1500 1506 1513 1516 1520 1526 1533 1539 1546 1551 1556 1559 1563 1568 1573 1577 1580 1583 1587 1590 1591 1593 1595
1485 1481 1479 1479 1481 1484 1492 1497 1488 1504 1516 1511 1496 1489 1477 1470 1474 1476 1478 1482 1486 1490 1497 1503 1510 1515 1520 1527 1532 1540 1546 1551 1555 1559 1563 1568 1573 1576 1579 1583 1586 1589 1591 1592
1476 1485 1476 1475 1480 1484 1482 1484 1502 1499 1516 1519 1499 1502 1484 1470 1471 1472 1473 1475 1478 1482 1489 1495 1502 1509 1515 1521 1527 1534 1539 1544 1550 1555 1558 1563 1568 1573 1576 1580 1583 1586 1588 1590
1474 1477 1482 1480 1476 1476 1486 1486 1488 1485 1495 1502 1505 1487 1470 1469 1471 1469 1468 1468 1473 1478 1485 1491 1495 1501 1509 1515 1520 1526 1533 1539 1544 1549 1553 1557 1562 1567 1572 1575 1579 1582 1585 1587
1476 1471 1478 1476 1476 1476 1469 1474 1477 1488 1503 1493 1485 1476 1467 1470 1470 1468 1467 1468 1472 1478 1481 1487 1493 1500 1505 1510 1515 1519 1525 1532 1537 1543 1548 1552 1557 1562 1566 1570 1574 1578 1581 1583
1479 1476 1479 1478 1478 1477 1473 1472 1471 1475 1477 1486 1493 1479 1468 1469 1469 1469 1469 1471 1471 1475 1481 1485 1489 1492 1499 1505 1509 1513 1518 1524 1531 1537 1543 1548 1551 1555 1559 1565 1569 1573 1576 1579
1481 1476 1470 1470 1465 1464 1474 1470 1473 1472 1480 1480 1478 1473 1467 1466 1469 1471 1472 1474 1475 1477 1479 1484 1486 1488 1493 1498 1503 1508 1513 1519 1525 1531 1537 1541 1546 1549 1553 1558 1564 1568 1571 1574
1483 1475 1475 1468 1467 1465 1463 1465 1470 1473 1469 1475 1472 1472 1467 1466 1471 1475 1477 1477 1479 1481 1484 1486 1489 1491 1493 1495 1498 1504 1510 1513 1518 1523 1529 1535 1541 1545 1549 1552 1557 1561 1565 1568
1488 1476 1477 1466 1466 1463 1467 1469 1468 1469 1475 1472 1475 1467 1473 1475 1477 1479 1479 1478 1480 1482 1483 1484 1485 1488 1492 1494 1497 1500 1505 1509 1514 1518 1524 1530 1535 1540 1544 1547 1550 1554 1557 1560
1493 1487 1480 1467 1465 1466 1473 1473 1470 1472 1474 1473 1473 1470 1478 1480 1484 1485 1484 1483 1483 1484 1483 1483 1483 1484 1487 1490 1495 1497 1502 1506 1510 1514 1519 1522 1528 1532 1535 1539 1542 1545 1549 1552
1496 1492 1485 1471 1469 1477 1476 1473 1474 1476 1479 1478 1479 1481 1482 1486 1489 1489 1488 1487 1486 1486 1486 1487 1486 1485 1485 1487 1491 1495 1499 1502 1508 1510 1514 1517 1521 1523 1527 1529 1532 1536 1540 1543
1498 1492 1482 1475 1465 1480 1479 1479 1480 1481 1486 1483 1481 1485 1486 1488 1489 1493 1493 1491 1490 1490 1489 1489 1488 1487 1488 1488 1490 1496 1498 1504 1506 1506 1509 1511 1515 1517 1520 1522 1526 1529 1532 1534
1496 1496 1486 1481 1470 1472 1472 1483 1485 1486 1485 1485 1485 1486 1487 1487 1488 1496 1496 1495 1493 1491 1491 1491 1491 1492 1491 1493 1493 1493 1490 1511 1499 1503 1505 1507 1509 1512 1514 1517 1520 1523 1524 1525
1491 1493 1483 1477 1471 1479 1483 1485 1486 1487 1488 1486 1486 1487 1487 1489 1492 1495 1497 1498 1497 1495 1496 1495 1496 1496 1494 1495 1495 1495 1499 1501 1497 1489 1503 1504 1505 1507 1509 1511 1514 1515 1516 1517
1475 1472 1475 1481 1477 1477 1488 1485 1481 1487 1486 1486 1488 1488 1489 1490 1493 1496 1498 1498 1499 1500 1500 1498 1499 1497 1498 1498 1498 1500 1496 1493 1491 1495 1504 1502 1499 1502 1506 1507 1508 1509 1509 1510
1483 1479 1479 1484 1487 1494 1493 1491 1490 1486 1487 1489 1490 1492 1492 1494 1496 1498 1500 1499 1499 1500 1500 1500 1500 1500 1500 1498 1498 1501 1499 1499 1500 1500 1498 1493 1497 1502 1505 1504 1504 1506 1506 1506
1487 1486 1485 1483 1495 1497 1496 1494 1492 1489 1490 1493 1493 1494 1497 1497 1499 1501 1501 1502 1501 1502 1501 1501 1501 1500 1499 1500 1499 1499 1501 1502 1503 1501 1500 1498 1501 1501 1500 1501 1502 1502 1501 1499
1491 1488 1485 1492 1496 1499 1499 1497 1497 1495 1495 1496 1497 1498 1500 1501 1503 1504 1504 1503 1503 1503 1503 1503 1503 1503 1504 1503 1501 1502 1504 1504 1505 1505 1502 1501 1502 1498 1496 1497 1497 1497 1495 1493
1492 1491 1486 1488 1495 1499 1501 1500 1499 1500 1499 1499 1500 1501 1503 1503 1504 1505 1505 1505 1505 1505 1504 1503 1502 1501 1503 1500 1500 1504 1508 1506 1508 1508 1504 1500 1498 1497 1496 1496 1494 1492 1490 1490